[[{"header":{"parameterUnit":"m.s-1","parameterCategory":1,"la1":30.2991,"la2":30.254,"lo1":-89.0895,"lo2":-89.0444,"dy":0.0017,"dx":0.0017,"nx":28,"ny":28,"refTime":"2023-08-08T03:00:00:Z","depth":0,"parameterNumber":2,"parameterNumberName":"U-component_of_WINDS"},"data":[0,0,0,0,0,0,0,0,0,0,0,0,0,0,0,0,0,0,0,0,0,0,0,0,0,0,0,0,0,0,0,0,0,0,0,0,0,0,0,0,0,0,0,0,0,0,0,0,0,0,0,0,0,0,0,0,0,0,3.2505,3.2506,0,3.2592,3.2593,3.2594,3.2588,3.2587,3.2585,3.2584,3.2675,3.2678,3.2682,0,0,0,0,0,0,0,0,0,0,0,0,0,3.2339,3.2342,3.2505,3.2506,3.2507,3.2591,3.2593,3.2594,3.2588,3.2587,3.2585,3.2584,3.2674,3.2678,3.2682,0,0,0,0,0,0,0,0,0,0,0,0,0,3.2417,3.2343,3.2505,3.2515,3.2516,3.2591,3.2593,3.2594,3.2588,3.2587,3.2585,3.2583,3.2672,3.2677,3.2683,3.2754,0,0,3.2699,3.2702,0,0,0,0,0,0,0,0,3.2412,3.2423,3.2512,3.2514,3.2516,3.2577,3.2567,3.2648,3.2589,3.2561,3.2584,3.2582,3.2644,3.2652,3.2672,3.2759,3.2762,3.27,3.2703,3.2705,3.2707,0,0,0,0,0,0,0,3.2407,3.2419,3.2539,3.2513,3.2516,3.2516,3.2525,3.2582,3.2612,3.2563,3.2563,3.2573,3.2645,3.2667,3.2674,3.2764,3.27,3.2704,3.2708,3.271,3.2916,3.2918,0,0,0,0,0,0,3.2399,3.2414,3.2537,3.2542,3.2458,3.252,3.253,3.2559,3.2612,3.2618,3.2575,3.2573,3.2658,3.2668,3.2677,3.2766,3.2705,3.271,3.2713,3.2913,3.2916,3.2919,0,0,0,0,0,0,3.2395,3.241,3.2533,3.2478,3.2494,3.2525,3.2558,3.2562,3.2584,3.262,3.2626,3.2592,3.2657,3.267,3.2736,3.2769,3.2713,3.2718,3.2911,3.2914,3.2917,3.2942,0,0,0,0,0,0,3.239,3.2408,3.2435,3.2479,3.2497,3.2589,3.256,3.2565,3.2593,3.2591,3.2638,3.2643,3.2657,3.2727,3.2741,3.2775,3.2722,3.2908,3.2912,3.2916,3.2939,3.2946,3.2953,0,0,0,0,0,3.2385,3.2439,3.2436,3.2451,3.2531,3.2591,3.2601,3.2615,3.2596,3.2624,3.2647,3.2642,3.2763,3.2734,3.2749,3.2786,3.2906,3.2911,3.2916,3.2936,3.2945,3.2952,0,0,0,0,0,0,3.2398,3.2445,3.2443,3.2512,3.2548,3.259,3.2625,3.2624,3.2666,3.2662,3.2678,3.2689,3.2755,3.2777,3.2744,3.2859,3.2832,3.284,3.2842,3.2851,3.2858,3.2851,3.2726,0,0,0,0,0,3.241,3.2454,3.2492,3.255,3.2568,3.2594,3.262,3.2628,3.2665,3.268,3.2709,3.2746,3.2793,3.2823,3.2868,3.2942,3.2953,3.2975,3.2981,3.2987,3.2994,3.3037,3.3047,3.2935,3.2935,3.2935,0,0,3.2433,3.2464,3.2491,3.2554,3.2582,3.2629,3.2606,3.2656,3.2691,3.2688,3.2752,3.2774,3.2817,3.2888,3.2921,3.2908,3.3028,3.2993,3.2997,3.3002,3.3043,3.3054,3.3063,3.2938,3.2938,3.2937,0,0,3.25,3.2527,3.2579,3.2608,3.2651,3.2668,3.2681,3.2723,3.2738,3.2802,3.2802,3.2844,3.2924,3.2955,3.2981,3.3061,3.3059,3.3076,3.3112,3.3153,3.3162,3.317,3.32,3.321,3.3083,3.3083,3.3083,0,3.2524,3.2593,3.2606,3.2657,3.2685,3.2685,3.2738,3.2766,3.2822,3.2842,3.2827,3.2928,3.2957,3.3035,3.3055,3.3076,3.3092,3.307,3.3159,3.3168,3.3175,3.3204,3.3215,3.3084,3.3084,3.3084,3.3084,0,3.2621,3.267,3.2707,3.276,3.2793,3.2845,3.2867,3.2898,3.2904,3.2923,3.2989,3.3024,3.3076,3.3095,3.3101,3.3176,3.3167,3.3156,3.3129,3.3188,3.3215,3.3226,3.3087,3.3086,3.3086,3.3085,0,0,3.2699,3.276,3.2773,3.2798,3.2846,3.2885,3.2937,3.2988,3.3016,3.3055,3.31,3.3168,3.3158,3.3188,3.3197,3.3234,3.3297,3.3218,3.322,3.3232,3.3383,3.3392,3.3404,3.3295,3.3298,3.3299,3.338,0,3.2771,3.2864,3.2878,3.296,3.3005,3.3006,3.3052,3.3087,3.3107,3.3149,3.3171,3.322,3.3203,3.3221,3.3257,3.3281,3.3328,3.3276,3.3339,3.3341,3.3329,3.3418,3.3427,3.3502,3.3391,3.3392,3.3394,0,3.2868,3.291,3.2996,3.3039,3.3059,3.31,3.3149,3.3189,3.323,3.3241,3.3275,3.3281,3.3337,3.3308,3.3386,3.3351,3.3378,3.3394,3.3397,3.3404,3.3371,3.3428,3.3525,3.3537,3.341,3.3409,3.3408,0,3.2917,3.2995,3.3057,3.3078,3.313,3.3159,3.3182,3.3221,3.3251,3.3294,3.3314,3.3363,3.339,3.3429,3.3448,3.3425,3.3526,3.3498,3.3538,3.3538,3.3559,3.3558,3.3663,3.3576,3.3575,3.3575,3.3575,0,3.2997,3.305,3.308,3.3118,3.3178,3.3194,3.3254,3.3276,3.3311,3.3355,3.3359,3.34,3.3422,3.3467,3.3482,3.3546,3.3558,3.357,3.3573,3.357,3.3568,3.3588,3.3583,3.3578,3.3578,3.3577,3.3577,0,3.3062,3.3084,3.3152,3.3196,3.3208,3.325,3.3288,3.3326,3.3346,3.3401,3.3415,3.3446,3.35,3.3522,3.3588,3.3598,3.3671,3.367,3.3657,3.3659,3.3698,3.3694,3.382,3.3837,3.3738,3.3739,3.3739,0,3.3112,3.3153,3.3201,3.323,3.3254,3.3301,3.3332,3.335,3.3383,3.3433,3.3466,3.3519,3.3562,3.3647,3.3676,3.3727,3.3728,3.3769,3.3736,3.3731,3.373,3.3727,3.3732,3.3775,3.3776,3.3776,3.3777,0,3.3199,3.3208,3.3252,3.33,3.3337,3.3376,3.3414,3.3438,3.3463,3.3499,3.3553,3.3587,3.3654,3.3707,3.376,3.3785,3.3786,3.3787,3.3799,3.3797,3.3787,3.3794,3.3674,3.3784,3.3784,3.3783,3.3783,3.3782,3.3258,3.3295,3.3335,3.3385,3.3416,3.3452,3.349,3.3514,3.3559,3.3615,3.3623,3.3681,3.3723,3.3793,3.3821,3.3868,3.3858,3.3875,3.3879,3.3884,3.3887,3.378,3.3877,3.3877,3.3877,3.3877,3.3876,0,3.3346,3.3372,3.3417,3.3471,3.351,3.3507,3.3549,3.3583,3.3634,3.3672,3.3715,3.3778,3.383,3.3864,3.3916,3.3948,3.395,3.3961,3.3959,3.3965,3.3892,3.3877,3.3959,3.3959,3.3959,3.3959,3.3959,3.3958,3.3396,3.3459,3.3473,3.3552,3.3578,3.3634,3.3659,3.3693,3.3724,3.3794,3.3837,3.3858,3.3895,3.3951,3.3999,3.4008,3.4027,3.404,3.4048,3.3979,3.397,3.3962,3.3948,3.4043,3.4044,3.4117,3.4118,3.4119]},{"header":{"parameterUnit":"m.s-1","parameterCategory":1,"la1":30.2991,"la2":30.254,"lo1":-89.0895,"lo2":-89.0444,"dy":0.0017,"dx":0.0017,"nx":28,"ny":28,"refTime":"2023-08-08T03:00:00:Z","depth":0,"parameterNumber":3,"parameterNumberName":"V-component_of_WINDS"},"data":[0,0,0,0,0,0,0,0,0,0,0,0,0,0,0,0,0,0,0,0,0,0,0,0,0,0,0,0,0,0,0,0,0,0,0,0,0,0,0,0,0,0,0,0,0,0,0,0,0,0,0,0,0,0,0,0,0,0,0.5018,0.5018,0,0.4972,0.4971,0.4971,0.4942,0.4941,0.4941,0.4941,0.4891,0.489,0.4889,0,0,0,0,0,0,0,0,0,0,0,0,0,0.5079,0.5078,0.5018,0.5018,0.5017,0.4972,0.4971,0.4971,0.4942,0.4941,0.4941,0.4941,0.4892,0.489,0.4889,0,0,0,0,0,0,0,0,0,0,0,0,0,0.5045,0.5078,0.5019,0.4997,0.4995,0.4972,0.4971,0.497,0.4942,0.4941,0.4941,0.4941,0.4892,0.489,0.4889,0.4882,0,0,0.4883,0.4883,0,0,0,0,0,0,0,0,0.5047,0.5043,0.5001,0.4999,0.4996,0.4962,0.4974,0.4941,0.4942,0.4962,0.4941,0.4941,0.4915,0.4911,0.4903,0.488,0.4878,0.4883,0.4882,0.4881,0.4881,0,0,0,0,0,0,0,0.5049,0.5044,0.5,0.5,0.4997,0.4989,0.4984,0.4968,0.494,0.496,0.4958,0.4953,0.4914,0.4905,0.4902,0.4877,0.4883,0.4882,0.488,0.488,0.4845,0.4845,0,0,0,0,0,0,0.5055,0.5047,0.5001,0.4999,0.5021,0.4988,0.4983,0.4973,0.494,0.4935,0.4953,0.4952,0.4908,0.4904,0.49,0.4889,0.4881,0.488,0.4879,0.4845,0.4845,0.4845,0,0,0,0,0,0,0.5057,0.5052,0.5003,0.5022,0.5015,0.4988,0.4977,0.4973,0.4964,0.4935,0.493,0.495,0.4908,0.4902,0.4887,0.4887,0.4879,0.4877,0.4845,0.4845,0.4845,0.4869,0,0,0,0,0,0,0.5059,0.5052,0.505,0.5022,0.5014,0.4992,0.4978,0.4972,0.4961,0.4959,0.493,0.4925,0.4907,0.489,0.4885,0.4885,0.4876,0.4845,0.4845,0.4845,0.4868,0.487,0.4872,0,0,0,0,0,0.5061,0.5059,0.505,0.5045,0.5012,0.4992,0.4988,0.4967,0.4961,0.4959,0.494,0.4926,0.4888,0.4888,0.4883,0.4882,0.4845,0.4845,0.4845,0.4868,0.487,0.4872,0,0,0,0,0,0,0.5087,0.5055,0.5045,0.5034,0.5016,0.4987,0.4983,0.4971,0.4954,0.4952,0.4927,0.4921,0.4907,0.4893,0.4894,0.4874,0.4865,0.4864,0.4883,0.4885,0.4887,0.4891,0.4874,0,0,0,0,0,0.5092,0.508,0.5052,0.5045,0.5036,0.5011,0.5002,0.4988,0.4968,0.496,0.4941,0.4921,0.4905,0.4894,0.4878,0.4866,0.4859,0.4863,0.4865,0.4866,0.4866,0.4857,0.4859,0.4847,0.4847,0.4847,0,0,0.5101,0.5082,0.5076,0.5049,0.5034,0.5021,0.5005,0.4992,0.4982,0.4958,0.4942,0.4927,0.4904,0.489,0.4883,0.4878,0.4867,0.4867,0.4868,0.4867,0.4858,0.4859,0.486,0.4847,0.4847,0.4847,0,0,0.5111,0.5096,0.5088,0.5073,0.505,0.5033,0.5031,0.5004,0.4993,0.4977,0.4958,0.4945,0.4918,0.4901,0.4889,0.4892,0.4879,0.4888,0.4897,0.4889,0.489,0.4891,0.4891,0.4891,0.4887,0.4887,0.4887,0,0.5126,0.5106,0.5085,0.5073,0.5062,0.504,0.5031,0.5017,0.4989,0.4981,0.4976,0.494,0.4922,0.4904,0.4905,0.4896,0.4892,0.4891,0.4892,0.4892,0.4893,0.4892,0.4893,0.4888,0.4888,0.4888,0.4888,0,0.5124,0.5111,0.5107,0.5081,0.5069,0.5059,0.5035,0.5025,0.5012,0.4996,0.4979,0.4957,0.4935,0.493,0.4916,0.4909,0.4906,0.4897,0.4887,0.4895,0.4895,0.4895,0.489,0.489,0.4889,0.4889,0,0,0.515,0.5113,0.5112,0.5099,0.5072,0.506,0.5048,0.5027,0.5019,0.5,0.4989,0.4966,0.4956,0.4943,0.4927,0.492,0.4923,0.4911,0.491,0.4914,0.4912,0.4919,0.492,0.4914,0.4914,0.4914,0.4914,0,0.5156,0.5134,0.5114,0.5099,0.5086,0.5065,0.5054,0.5035,0.5019,0.5005,0.4987,0.4971,0.496,0.4952,0.4944,0.4924,0.4922,0.4924,0.4902,0.4901,0.4908,0.4919,0.4927,0.4929,0.4914,0.4913,0.4913,0,0.516,0.5142,0.5126,0.5099,0.5093,0.5084,0.5062,0.5049,0.5027,0.5016,0.5,0.4984,0.4969,0.4961,0.4939,0.4941,0.4931,0.4919,0.4919,0.4916,0.4908,0.4916,0.4929,0.4929,0.4913,0.4913,0.4913,0,0.5179,0.5152,0.5138,0.5129,0.5097,0.5091,0.5077,0.5055,0.5043,0.5024,0.5016,0.4995,0.4984,0.4967,0.4945,0.4942,0.4925,0.4916,0.4915,0.4915,0.4912,0.4913,0.4923,0.4906,0.4906,0.4906,0.4906,0,0.5187,0.5178,0.5147,0.5138,0.5127,0.5104,0.5093,0.5077,0.5057,0.5044,0.5024,0.5013,0.4984,0.4969,0.4951,0.4935,0.493,0.492,0.4916,0.4922,0.4923,0.4914,0.4913,0.4906,0.4906,0.4906,0.4906,0,0.5207,0.5186,0.517,0.5141,0.5133,0.5126,0.5101,0.5091,0.5074,0.5058,0.5053,0.5026,0.5006,0.4983,0.4956,0.4944,0.4929,0.4923,0.4937,0.4935,0.4934,0.4934,0.4939,0.4938,0.4923,0.4923,0.4923,0,0.5214,0.5206,0.5177,0.5167,0.5154,0.5139,0.5127,0.5103,0.5091,0.5065,0.5058,0.5038,0.502,0.499,0.4967,0.4945,0.4938,0.4941,0.4934,0.4941,0.4937,0.4937,0.4936,0.4942,0.4943,0.4943,0.4943,0,0.5227,0.5217,0.5201,0.5181,0.5167,0.515,0.5132,0.5125,0.5097,0.5085,0.5065,0.5052,0.5024,0.5003,0.4979,0.4963,0.4948,0.4945,0.4944,0.495,0.4958,0.4953,0.4941,0.4945,0.4945,0.4945,0.4945,0.4945,0.524,0.5232,0.5209,0.5192,0.5176,0.5159,0.5149,0.513,0.5114,0.509,0.5077,0.5057,0.5034,0.5,0.4985,0.4968,0.4963,0.4961,0.496,0.496,0.4961,0.4961,0.4964,0.4964,0.4964,0.4963,0.4963,0,0.5251,0.5236,0.522,0.5196,0.5182,0.5169,0.5148,0.5137,0.5121,0.51,0.5083,0.506,0.5039,0.5015,0.4992,0.4984,0.4976,0.4979,0.4979,0.4975,0.4968,0.4971,0.4985,0.4985,0.4985,0.4985,0.4985,0.4985,0.5256,0.5241,0.5228,0.5205,0.5189,0.517,0.5159,0.5143,0.5127,0.5102,0.5086,0.507,0.5047,0.5023,0.5003,0.4996,0.4989,0.4993,0.4984,0.4978,0.4976,0.4974,0.4977,0.4992,0.4992,0.4992,0.4992,0.4992]}]]